TimePST,TemperatureF,Dew PointF,Humidity,Sea Level PressureIn,VisibilityMPH,Wind Direction,Wind SpeedMPH,Gust SpeedMPH,PrecipitationIn,Events,Conditions,WindDirDegrees,DateUTC
12:56 AM,46.0,42.1,86,30.10,10.0,SSW,5.8,-,0.01,Rain,Light Rain,210,2013-11-03 07:56:00
1:56 AM,44.1,39.9,85,30.10,10.0,South,6.9,-,0.00,,Clear,180,2013-11-03 08:56:00
1:56 AM,45.0,42.1,90,30.12,10.0,SW,4.6,-,0.03,,Overcast,230,2013-11-03 09:56:00
2:56 AM,44.1,41.0,89,30.12,10.0,SSW,3.5,-,N/A,,Overcast,210,2013-11-03 10:56:00
3:56 AM,44.1,39.0,82,30.12,10.0,Calm,Calm,-,N/A,,Mostly Cloudy,0,2013-11-03 11:56:00
4:56 AM,42.1,39.0,89,30.13,10.0,South,6.9,-,N/A,,Scattered Clouds,180,2013-11-03 12:56:00
5:56 AM,43.0,39.9,89,30.14,10.0,Calm,Calm,-,N/A,,Overcast,0,2013-11-03 13:56:00
6:56 AM,42.1,39.0,89,30.14,10.0,SSW,4.6,-,N/A,,Partly Cloudy,210,2013-11-03 14:56:00
7:56 AM,42.1,39.9,92,30.16,10.0,SSE,3.5,-,N/A,,Partly Cloudy,160,2013-11-03 15:56:00
8:56 AM,46.0,42.1,86,30.17,10.0,SSE,3.5,-,N/A,,Overcast,150,2013-11-03 16:56:00
9:56 AM,48.9,41.0,74,30.18,10.0,SW,4.6,-,N/A,,Overcast,220,2013-11-03 17:56:00
10:56 AM,50.0,43.0,77,30.18,10.0,South,11.5,-,N/A,,Overcast,180,2013-11-03 18:56:00
11:56 AM,51.1,43.0,74,30.17,10.0,SSW,9.2,-,N/A,,Mostly Cloudy,210,2013-11-03 19:56:00
12:56 PM,51.1,43.0,74,30.15,10.0,South,9.2,-,N/A,,Mostly Cloudy,190,2013-11-03 20:56:00
1:56 PM,50.0,43.0,77,30.15,10.0,WSW,6.9,-,0.00,Rain,Light Rain,240,2013-11-03 21:56:00
2:56 PM,50.0,44.1,80,30.16,10.0,SW,6.9,-,0.00,,Overcast,220,2013-11-03 22:56:00
3:56 PM,48.9,44.1,83,30.15,10.0,SSE,4.6,-,N/A,,Overcast,150,2013-11-03 23:56:00
4:56 PM,48.0,44.1,86,30.15,9.0,SW,3.5,-,0.01,Rain,Light Rain,220,2013-11-04 00:56:00
5:56 PM,46.9,44.1,90,30.14,10.0,South,4.6,-,0.00,Rain,Light Rain,180,2013-11-04 01:56:00
6:56 PM,46.9,45.0,93,30.15,10.0,SSE,3.5,-,0.01,Rain,Light Rain,150,2013-11-04 02:56:00
7:56 PM,46.9,44.1,90,30.15,10.0,South,3.5,-,0.01,Rain,Light Rain,190,2013-11-04 03:56:00
8:56 PM,46.0,44.1,93,30.15,10.0,South,3.5,-,0.00,,Overcast,180,2013-11-04 04:56:00
9:56 PM,46.0,43.0,89,30.16,10.0,Calm,Calm,-,0.00,Rain,Light Rain,0,2013-11-04 05:56:00
10:56 PM,46.0,43.0,89,30.16,10.0,Calm,Calm,-,0.00,,Overcast,0,2013-11-04 06:56:00